• In Belgium
  • List of Countries
  • For 7 days
  • Water Temperature
  • Satellite Maps
  • Weather Map
  • Weather Widgets
  • user-avatar
    Login

    Hourly Weather Horog

    Today, 17 October, Wednesday

    Time Temperature Precipitation Wind Pressure Humidity
    00:00 -12°C° 0.6 mm 4 mps 482 mmHg 90%
    01:00 -12°C° 0.6 mm 4 mps 482 mmHg 90%
    02:00 -12°C° 0.6 mm 4 mps 482 mmHg 91%
    03:00 -14°C° 0.6 mm 4 mps 483 mmHg 91%
    04:00 -14°C° 0.6 mm 4 mps 483 mmHg 91%
    05:00 -14°C° 0 mm 4 mps 483 mmHg 91%
    06:00 -14°C° 0.4 mm 4 mps 483 mmHg 89%
    07:00 -14°C° 0.4 mm 4 mps 483 mmHg 88%
    08:00 -14°C° 0.4 mm 4 mps 484 mmHg 87%
    09:00 -12°C° 0.2 mm 4 mps 484 mmHg 83%
    10:00 -11°C° 0.2 mm 4 mps 484 mmHg 80%
    11:00 -12°C° 0.2 mm 5 mps 485 mmHg 76%
    12:00 -10°C° 0.1 mm 4 mps 485 mmHg 74%
    13:00 -10°C° 0.1 mm 4 mps 485 mmHg 72%
    14:00 -10°C° 0.1 mm 4 mps 485 mmHg 70%
    15:00 -10°C° 0 mm 3 mps 484 mmHg 72%
    16:00 -12°C° 0 mm 3 mps 484 mmHg 74%
    17:00 -12°C° 0 mm 2 mps 483 mmHg 76%
    18:00 -13°C° 0 mm 2 mps 483 mmHg 75%
    19:00 -14°C° 0 mm 2 mps 483 mmHg 75%
    20:00 -16°C° 0 mm 2 mps 483 mmHg 75%
    21:00 -16°C° 0 mm 2 mps 483 mmHg 73%
    22:00 -16°C° 0 mm 2 mps 483 mmHg 71%
    23:00 -16°C° 0 mm 2 mps 483 mmHg 70%

    Tomorrow, 18 October, Thursday

    Time Temperature Precipitation Wind Pressure Humidity
    00:00 -16°C° 0 mm 2 mps 483 mmHg 68%
    01:00 -16°C° 0 mm 2 mps 483 mmHg 66%
    02:00 -17°C° 0 mm 2 mps 482 mmHg 64%
    03:00 -17°C° 0 mm 2 mps 482 mmHg 62%
    04:00 -16°C° 0 mm 2 mps 482 mmHg 61%
    05:00 -16°C° 0 mm 2 mps 483 mmHg 59%
    06:00 -15°C° 0 mm 2 mps 483 mmHg 59%
    07:00 -14°C° 0 mm 2 mps 484 mmHg 59%
    08:00 -13°C° 0 mm 2 mps 485 mmHg 59%
    09:00 -10°C° 0 mm 2 mps 485 mmHg 56%
    10:00 -8°C° 0 mm 2 mps 486 mmHg 53%
    11:00 -3°C° 0 mm 1 mps 486 mmHg 51%
    12:00 -3°C° 0 mm 1 mps 486 mmHg 52%
    13:00 -2°C° 0 mm 1 mps 487 mmHg 54%
    14:00 -1°C° 0 mm 1 mps 487 mmHg 56%
    15:00 -3°C° 0 mm 1 mps 486 mmHg 58%
    16:00 -6°C° 0 mm 1 mps 485 mmHg 61%
    17:00 -7°C° 0 mm 0 mps 483 mmHg 63%
    18:00 -8°C° 0 mm 1 mps 483 mmHg 63%
    19:00 -9°C° 0 mm 1 mps 483 mmHg 63%
    20:00 -12°C° 0 mm 2 mps 483 mmHg 62%
    21:00 -12°C° 0 mm 2 mps 483 mmHg 62%
    22:00 -13°C° 0 mm 2 mps 484 mmHg 62%
    23:00 -13°C° 0 mm 2 mps 484 mmHg 61%

    Day after tomorrow, 19 October, Friday

    Time Temperature Precipitation Wind Pressure Humidity
    00:00 -13°C° 0 mm 2 mps 484 mmHg 61%
    01:00 -13°C° 0 mm 2 mps 483 mmHg 61%
    02:00 -14°C° 0 mm 2 mps 483 mmHg 61%
    03:00 -14°C° 0 mm 2 mps 483 mmHg 61%
    04:00 -14°C° 0 mm 2 mps 483 mmHg 61%
    05:00 -14°C° 0 mm 2 mps 483 mmHg 62%
    06:00 -13°C° 0 mm 2 mps 484 mmHg 63%
    07:00 -12°C° 0 mm 2 mps 485 mmHg 63%
    08:00 -10°C° 0 mm 2 mps 485 mmHg 64%
    09:00 -9°C° 0 mm 2 mps 486 mmHg 61%
    10:00 -6°C° 0 mm 1 mps 487 mmHg 58%
    11:00 -3°C° 0 mm 1 mps 488 mmHg 55%
    12:00 -2°C° 0 mm 1 mps 488 mmHg 57%
    13:00 -2°C° 0 mm 1 mps 488 mmHg 59%
    14:00 -2°C° 0 mm 1 mps 488 mmHg 60%
    15:00 -3°C° 0 mm 1 mps 487 mmHg 62%
    16:00 -6°C° 0 mm 1 mps 486 mmHg 64%
    17:00 -7°C° 0 mm 1 mps 485 mmHg 66%
    18:00 -8°C° 0 mm 1 mps 485 mmHg 67%
    19:00 -9°C° 0 mm 1 mps 485 mmHg 67%
    20:00 -10°C° 0 mm 1 mps 485 mmHg 68%
    21:00 -12°C° 0 mm 2 mps 485 mmHg 68%
    22:00 -13°C° 0 mm 2 mps 485 mmHg 67%
    23:00 -13°C° 0 mm 2 mps 485 mmHg 67%

    20 October, Saturday

    Time Temperature Precipitation Wind Pressure Humidity
    00:00 -13°C° 0 mm 2 mps 485 mmHg 66%
    01:00 -13°C° 0 mm 2 mps 485 mmHg 65%
    02:00 -14°C° 0 mm 2 mps 485 mmHg 63%
    03:00 -14°C° 0 mm 2 mps 485 mmHg 62%
    04:00 -14°C° 0 mm 2 mps 485 mmHg 61%
    05:00 -14°C° 0 mm 2 mps 484 mmHg 59%
    06:00 -13°C° 0 mm 2 mps 485 mmHg 59%
    07:00 -13°C° 0 mm 2 mps 486 mmHg 58%
    08:00 -12°C° 0 mm 2 mps 486 mmHg 58%
    09:00 -9°C° 0 mm 2 mps 487 mmHg 55%
    10:00 -6°C° 0 mm 2 mps 488 mmHg 53%
    11:00 -2°C° 0 mm 1 mps 489 mmHg 51%
    12:00 -2°C° 0 mm 1 mps 489 mmHg 51%
    13:00 -1°C° 0 mm 1 mps 489 mmHg 51%
    14:00 -1°C° 0 mm 1 mps 489 mmHg 51%
    15:00 -2°C° 0 mm 1 mps 488 mmHg 52%
    16:00 -5°C° 0 mm 0 mps 487 mmHg 53%
    17:00 -6°C° 0 mm 0 mps 486 mmHg 55%
    18:00 -7°C° 0 mm 1 mps 486 mmHg 55%
    19:00 -8°C° 0 mm 1 mps 486 mmHg 54%
    20:00 -10°C° 0 mm 2 mps 485 mmHg 54%
    21:00 -10°C° 0 mm 2 mps 486 mmHg 55%
    22:00 -10°C° 0 mm 2 mps 486 mmHg 56%
    23:00 -10°C° 0 mm 2 mps 486 mmHg 56%

    21 October, Sunday

    Time Temperature Precipitation Wind Pressure Humidity
    00:00 -10°C° 0 mm 2 mps 486 mmHg 57%
    01:00 -10°C° 0 mm 2 mps 486 mmHg 58%
    02:00 -10°C° 0 mm 2 mps 486 mmHg 59%
    03:00 -10°C° 0 mm 2 mps 486 mmHg 59%
    04:00 -10°C° 0 mm 2 mps 486 mmHg 60%
    05:00 -10°C° 0 mm 2 mps 486 mmHg 61%
    06:00 -10°C° 0 mm 2 mps 486 mmHg 62%
    07:00 -9°C° 0 mm 2 mps 487 mmHg 63%
    08:00 -9°C° 0 mm 2 mps 487 mmHg 65%
    09:00 -7°C° 0 mm 2 mps 488 mmHg 62%
    10:00 -4°C° 0 mm 1 mps 488 mmHg 59%
    11:00 -2°C° 0 mm 1 mps 489 mmHg 56%
    12:00 -2°C° 0 mm 1 mps 489 mmHg 56%
    13:00 -2°C° 0 mm 1 mps 489 mmHg 56%
    14:00 -2°C° 0 mm 0 mps 489 mmHg 56%
    15:00 -3°C° 0 mm 0 mps 488 mmHg 59%
    16:00 -4°C° 0 mm 0 mps 488 mmHg 61%
    17:00 -5°C° 0 mm 0 mps 487 mmHg 64%
    18:00 -6°C° 0 mm 1 mps 487 mmHg 65%
    19:00 -6°C° 0 mm 1 mps 487 mmHg 67%
    20:00 -7°C° 0 mm 1 mps 487 mmHg 68%
    21:00 -8°C° 0 mm 1 mps 487 mmHg 68%
    22:00 -9°C° 0 mm 2 mps 486 mmHg 69%
    23:00 -10°C° 0 mm 2 mps 486 mmHg 69%

    22 October, Monday

    Time Temperature Precipitation Wind Pressure Humidity
    00:00 -10°C° 0 mm 2 mps 486 mmHg 69%
    01:00 -12°C° 0 mm 2 mps 485 mmHg 69%
    02:00 -12°C° 0 mm 2 mps 485 mmHg 69%
    03:00 -12°C° 0 mm 2 mps 485 mmHg 68%
    04:00 -13°C° 0 mm 2 mps 485 mmHg 68%
    05:00 -13°C° 0 mm 2 mps 485 mmHg 67%
    06:00 -12°C° 0 mm 2 mps 485 mmHg 66%
    07:00 -12°C° 0 mm 2 mps 486 mmHg 66%
    08:00 -10°C° 0 mm 2 mps 486 mmHg 65%
    09:00 -8°C° 0 mm 2 mps 487 mmHg 62%
    10:00 -6°C° 0 mm 2 mps 488 mmHg 59%
    11:00 -2°C° 0 mm 1 mps 488 mmHg 56%
    12:00 -2°C° 0 mm 1 mps 489 mmHg 54%
    13:00 -1°C° 0 mm 1 mps 489 mmHg 53%
    14:00 -2°C° 0 mm 0 mps 489 mmHg 52%
    15:00 -3°C° 0 mm 0 mps 488 mmHg 53%
    16:00 -4°C° 0 mm 0 mps 487 mmHg 55%
    17:00 -5°C° 0 mm 0 mps 486 mmHg 57%
    18:00 -6°C° 0 mm 1 mps 486 mmHg 57%
    19:00 -7°C° 0 mm 1 mps 486 mmHg 57%
    20:00 -9°C° 0 mm 2 mps 486 mmHg 57%
    21:00 -10°C° 0 mm 2 mps 486 mmHg 56%
    22:00 -10°C° 0 mm 2 mps 485 mmHg 55%
    23:00 -12°C° 0 mm 2 mps 485 mmHg 54%
    Show more